Probability
0 0 0 0 0 0 0 0 0 0 0 0 0 0 0 0 0 0 0 0 1 5 6 2 0 0 0 0 0 0 0 0 0 0 0 0 0 0 0 0 0 0 0 0 0 0 0 0 0
0 0 0 0 0 0 0 0 0 0 0 0 0 0 0 0 0 0 0 0 1 4 5 3 1 0 0 0 0 0 0 0 0 0 0 0 0 0 0 0 0 0 0 0 0 0 0 0 0
0 0 0 0 0 0 0 0 0 0 0 0 0 0 0 0 0 0 0 0 1 3 4 5 3 1 0 0 1 1 1 1 1 1 0 0 0 0 0 0 0 0 0 0 0 0 0 0 0
0 0 0 0 0 0 0 0 0 0 0 0 0 0 0 1 1 0 0 0 1 2 5 7 6 2 0 0 1 2 3 4 4 4 3 2 1 0 0 0 0 0 0 0 0 0 0 0 0
0 0 0 0 0 0 0 0 0 0 0 0 0 0 1 2 2 1 0 0 1 2 6 9 7 2 0 0 0 2 4 6 6 7 7 4 1 0 0 0 0 0 0 0 0 0 0 0 0
0 0 0 0 0 0 0 0 0 0 0 0 0 0 1 4 5 4 2 1 1 2 6 10 9 3 1 2 1 3 5 7 8 9 9 5 1 0 0 0 0 0 0 0 0 0 0 0 0
0 0 0 0 0 0 0 0 0 0 0 0 0 0 2 8 13 12 7 4 3 3 7 10 9 5 3 3 4 6 9 10 11 11 10 7 4 2 1 0 0 0 0 0 0 0 0 0 0
0 0 0 0 0 0 0 0 0 0 0 0 0 0 8 23 34 31 23 14 10 8 8 9 9 7 5 4 7 11 14 15 16 15 13 10 6 3 2 1 1 1 0 0 0 0 0 0 0
0 0 0 0 0 0 0 0 0 0 0 0 1 4 21 48 60 56 46 35 26 18 12 10 10 9 6 6 9 13 15 18 19 19 19 14 7 4 4 6 7 5 1 0 0 0 0 0 0
0 0 0 0 0 0 0 0 0 0 0 0 3 11 32 57 70 68 62 54 44 33 24 19 18 16 12 11 14 16 20 24 25 27 29 25 17 13 10 13 17 13 6 3 3 3 1 0 1
0 0 0 0 0 0 0 0 1 2 2 2 5 17 34 49 59 62 61 59 54 47 39 35 34 33 28 25 25 26 31 37 38 38 43 44 39 33 27 26 28 25 19 13 12 10 5 2 3
0 0 0 0 0 0 0 1 3 7 8 8 11 21 30 40 48 53 56 58 60 58 53 49 53 56 54 49 46 43 44 49 51 52 56 59 59 53 46 42 39 37 33 26 23 20 12 6 5
0 0 0 0 0 0 1 2 6 13 17 17 22 29 34 42 51 59 62 63 66 66 62 60 66 74 76 74 67 60 57 56 59 63 65 67 67 63 56 53 48 43 38 33 29 23 16 11 11
0 0 0 0 0 0 1 4 11 20 25 30 37 44 49 57 67 74 75 71 68 68 67 69 76 84 86 83 78 71 66 64 64 66 66 66 64 60 57 55 49 42 38 36 29 21 17 17 16
0 0 0 0 0 0 1 7 17 27 32 40 50 57 64 71 79 84 84 78 72 70 70 72 77 82 83 82 79 73 68 66 65 62 59 55 53 53 55 55 49 42 37 35 29 20 18 19 18
0 0 0 0 0 0 2 9 20 28 34 42 52 59 65 70 76 81 83 81 78 75 72 71 69 72 74 75 74 70 65 62 59 55 49 46 46 48 51 52 48 40 34 30 25 20 17 17 16
0 0 0 0 0 0 3 10 18 24 27 34 44 54 59 61 64 68 71 73 75 73 70 65 63 63 65 65 65 64 60 54 49 45 43 42 43 44 45 44 41 34 28 24 21 17 15 14 12
0 0 0 0 0 0 3 8 12 15 19 25 35 45 52 52 50 52 55 58 60 60 58 56 58 60 59 57 56 53 49 43 38 35 34 35 36 37 37 36 33 28 23 22 20 16 13 11 9
0 0 0 0 0 0 2 5 7 10 15 20 27 36 42 40 36 37 40 43 45 45 43 42 47 51 52 51 46 40 35 31 28 24 21 20 22 25 28 30 29 25 21 22 19 14 10 8 7
0 0 0 0 0 0 2 4 7 11 15 19 22 26 28 27 25 26 28 31 33 33 31 29 32 37 40 40 33 27 24 22 18 14 12 11 11 13 18 24 26 23 19 18 15 10 7 6 6
0 0 0 0 0 0 1 4 9 13 15 16 16 15 14 14 16 17 18 19 21 21 20 18 20 23 25 24 20 17 18 17 13 11 11 11 9 10 14 19 21 19 16 13 10 7 6 5 5
0 0 0 0 0 0 0 5 10 12 13 13 9 6 5 6 8 9 8 10 11 11 11 11 13 14 13 12 11 13 14 14 11 11 12 11 9 9 12 15 17 18 16 13 9 7 5 4 4
0 0 0 0 0 0 0 6 13 12 10 10 5 2 1 1 2 4 5 7 8 7 6 7 9 10 10 10 11 13 13 11 10 10 11 10 9 8 8 11 15 19 18 16 15 12 8 6 6
0 0 0 0 0 0 0 7 16 14 9 8 5 2 1 1 2 4 7 8 7 5 5 5 6 8 10 12 12 12 13 11 8 8 9 9 8 7 7 8 12 17 18 20 22 21 15 13 14
0 0 0 0 0 0 0 6 13 12 7 6 4 3 2 1 2 4 5 5 3 2 3 3 4 6 9 11 12 12 12 10 7 7 8 8 6 7 7 7 9 12 14 17 22 24 22 21 24
0 0 0 0 0 0 1 6 10 7 3 2 2 2 2 1 1 1 1 1 0 0 1 1 2 4 6 7 8 9 9 7 6 6 8 7 6 5 6 6 6 6 6 8 13 17 21 23 25
0 0 0 0 0 0 2 7 8 4 1 0 0 0 1 1 0 0 0 0 0 0 0 0 1 1 2 3 4 4 4 4 5 6 7 7 6 4 5 6 5 3 1 2 4 8 14 20 21
0 0 0 0 0 0 1 4 5 2 0 0 0 0 0 0 0 0 0 0 0 0 0 0 0 0 1 2 2 1 1 2 5 6 6 6 6 5 5 5 4 2 1 0 1 2 6 12 15
0 0 0 0 0 0 0 0 1 1 0 0 0 0 0 0 0 0 0 0 0 0 0 0 0 0 0 1 1 0 0 1 3 5 5 4 5 5 4 3 2 1 0 0 0 0 2 4 6
0 0 0 0 0 0 0 0 0 0 0 0 0 0 0 0 0 0 0 0 0 0 0 0 0 0 0 0 1 0 0 0 1 3 3 2 3 3 2 1 0 0 0 0 0 0 0 0 1
Wind_Speed
16 13 8 5 7 6 3 5 5 5 3 3 1 2 5 5 6 6 5 13 17 19 21 21 18 18 17 16 15 14 14 14 14 14 14 13 13 12 12 11 10 9 8 8 7 7 7 7 8
13 11 7 6 7 3 6 6 6 7 4 1 2 4 5 2 4 4 7 14 19 20 20 19 20 18 17 16 15 15 14 14 14 14 13 13 12 12 11 10 10 9 8 8 7 7 7 7 7
12 8 6 6 4 6 7 7 6 4 0 2 2 2 4 4 3 4 9 17 18 19 18 19 21 19 18 16 16 15 14 14 14 13 13 12 12 11 11 10 9 8 8 8 7 7 7 7 7
8 7 7 7 4 4 6 7 6 3 0 1 3 0 3 5 3 7 14 18 19 19 18 20 20 19 18 17 16 15 14 14 13 13 12 12 11 11 10 10 9 8 8 8 7 7 7 7 7
6 7 8 6 3 4 4 6 6 6 4 2 3 1 4 6 6 12 16 17 18 18 17 20 19 18 18 17 16 15 14 14 13 13 12 11 10 10 10 9 9 8 8 8 8 8 7 7 7
6 6 9 6 4 4 4 5 5 6 5 2 2 1 6 8 9 13 15 15 16 16 16 19 19 18 17 16 16 15 14 13 13 12 11 10 10 9 9 9 9 9 8 8 8 8 8 8 8
8 7 10 8 7 4 4 6 6 7 6 3 3 2 7 9 10 13 14 14 15 15 15 16 17 16 16 15 15 14 13 13 12 12 11 10 10 9 9 9 9 9 9 9 9 9 9 10 10
7 8 11 9 7 6 5 7 6 8 6 3 2 3 4 12 13 14 13 12 12 13 13 14 15 15 15 15 15 14 13 13 12 12 11 11 10 10 10 10 11 10 10 10 10 10 10 10 11
7 9 12 9 6 7 8 9 7 5 4 3 1 4 6 16 17 15 13 12 12 12 11 12 14 13 13 13 14 14 14 13 12 12 13 11 11 12 11 13 10 11 12 12 12 12 12 11 13
9 11 12 7 7 9 10 10 9 6 6 4 1 5 10 16 17 17 16 16 16 15 14 11 11 12 12 9 10 10 11 11 11 10 11 11 9 7 8 6 9 12 13 13 14 13 13 13 10
9 12 10 8 8 9 11 10 7 9 7 9 8 0 11 14 15 16 16 15 15 14 13 12 11 10 10 7 7 6 6 6 9 10 9 8 7 6 7 6 8 10 13 12 12 13 11 10 8
11 11 11 11 10 10 11 10 7 7 11 12 9 2 8 12 12 12 12 12 12 12 13 12 11 9 9 8 6 6 6 5 6 8 10 8 6 6 6 5 6 6 6 7 8 7 9 9 10
13 12 11 11 11 11 10 9 6 8 11 10 6 2 4 7 7 8 8 9 9 10 11 11 10 9 8 7 6 7 7 7 7 6 7 8 7 7 7 6 6 7 6 7 7 8 8 9 9
7 10 11 11 10 9 7 3 3 8 9 8 8 7 5 3 3 5 5 6 7 8 8 9 10 9 8 7 7 6 6 5 6 6 7 8 7 7 6 7 7 7 7 6 7 8 8 7 7
8 11 10 4 5 4 5 4 7 9 7 9 11 11 11 10 7 5 3 3 4 5 6 6 8 8 9 9 8 7 6 6 6 5 7 8 8 7 6 7 7 6 6 7 7 8 7 7 8
9 10 7 3 2 1 9 2 11 8 8 10 11 11 12 12 11 9 6 4 3 2 4 5 5 7 8 7 7 6 5 5 5 5 5 8 8 8 7 6 6 6 6 6 6 6 6 6 6
8 5 2 3 4 1 2 6 9 8 8 10 10 11 11 12 12 10 9 7 6 5 3 2 1 3 4 5 5 5 5 5 5 5 5 7 9 8 7 6 5 5 5 6 7 5 6 6 6
1 3 1 1 4 3 5 7 8 8 9 9 10 10 11 12 11 10 10 9 7 6 5 4 3 2 2 2 3 3 4 5 5 5 6 7 6 7 7 6 6 7 6 6 6 6 5 5 5
5 5 3 2 3 2 6 7 8 8 8 9 9 10 10 10 10 10 9 8 7 6 5 4 4 3 2 1 3 3 3 4 4 4 5 6 7 7 6 6 5 6 6 6 7 7 7 6 4
7 6 3 3 4 2 5 7 8 9 10 9 9 9 9 9 9 10 10 9 8 7 6 5 4 3 2 1 2 2 3 3 3 3 3 5 6 6 6 6 6 7 6 7 7 7 6 5 4
6 6 4 1 3 6 5 7 9 9 9 9 9 9 9 9 9 8 8 8 7 7 6 5 4 3 3 2 1 1 3 3 2 2 2 3 4 5 6 6 6 6 7 7 7 7 8 6 5
5 2 5 4 7 4 6 3 9 8 9 8 8 8 8 8 8 7 7 7 6 5 4 4 3 3 2 1 2 3 3 3 2 2 1 2 4 5 6 6 6 6 6 6 7 7 6 7 6
6 4 5 7 9 8 4 5 9 6 6 7 6 6 6 6 6 6 6 5 5 5 4 3 4 4 3 3 3 4 4 3 2 1 2 2 2 3 4 5 5 5 5 6 6 5 7 7 7
3 6 7 9 9 7 1 5 7 6 6 5 5 5 5 5 5 5 5 5 5 5 5 5 5 5 5 5 5 5 5 5 4 4 3 3 2 2 2 3 3 4 4 5 6 6 8 8 8
5 9 7 6 5 1 3 1 8 7 6 6 5 5 5 5 5 6 6 7 7 7 7 7 7 7 7 7 7 7 7 7 7 6 4 4 3 3 3 3 3 3 3 5 6 6 7 8 8
5 8 7 8 7 3 2 4 7 6 5 4 4 4 5 6 7 7 8 8 8 9 9 9 9 10 9 9 8 8 9 8 7 7 7 6 5 5 3 5 5 5 5 6 5 6 7 7 8
4 5 6 9 8 6 2 8 8 5 4 4 4 5 6 7 9 9 10 9 10 10 10 11 11 11 11 11 10 10 10 10 10 9 9 9 7 7 6 7 6 6 7 7 6 6 7 6 8
6 5 5 5 7 8 2 3 4 5 5 5 6 7 8 9 10 11 11 11 11 11 11 12 12 12 12 12 11 10 11 11 11 11 12 11 10 9 8 9 8 8 7 8 8 8 8 7 7
7 6 6 4 6 8 8 4 7 5 6 7 8 9 11 12 13 13 12 12 13 13 13 13 13 14 13 13 13 12 13 12 12 12 12 12 12 11 11 11 10 10 9 9 8 10 9 9 9
8 8 8 6 6 6 8 5 7 4 5 7 10 12 13 14 14 14 14 14 14 15 15 15 15 15 14 14 14 14 14 14 14 14 13 13 13 13 13 12 11 12 12 11 11 11 10 10 10
Wind_Direction
161 169 187 211 235 230 33 36 7 4 18 24 324 255 300 311 322 10 84 152 153 151 148 157 163 165 164 162 159 158 158 159 159 160 161 162 162 162 163 163 161 160 157 150 145 140 134 131 128
165 170 201 231 261 335 54 30 15 10 12 358 218 250 282 332 22 71 129 149 154 150 151 160 160 166 166 164 163 162 162 162 162 163 164 166 167 167 167 167 167 167 163 157 155 152 147 142 138
165 195 241 246 282 354 15 20 11 9 30 243 247 295 331 18 63 108 131 152 154 152 155 153 161 167 168 167 167 167 166 165 166 167 168 170 172 173 173 173 175 175 172 168 166 165 161 155 151
176 212 231 252 298 12 350 351 345 325 249 241 271 216 96 49 45 112 139 156 156 157 156 151 165 168 170 170 171 171 170 170 171 172 173 175 177 179 181 182 184 185 183 180 178 178 174 171 168
225 245 245 249 310 7 350 344 324 316 340 343 288 341 106 91 96 129 150 159 161 160 157 154 166 169 172 174 174 175 175 176 176 177 179 181 184 188 190 191 193 195 195 193 192 191 189 188 186
229 245 263 284 335 348 355 355 327 324 329 327 285 281 97 111 133 145 153 163 163 161 160 151 166 172 174 176 178 179 180 181 182 183 185 188 192 198 201 202 204 206 208 207 205 205 203 201 199
261 264 276 292 305 317 3 346 323 324 316 333 314 284 118 140 140 147 151 165 165 165 164 157 169 175 178 181 182 183 185 186 188 189 192 197 201 207 214 216 217 217 218 219 220 219 217 214 209
270 274 266 269 288 311 356 336 334 317 323 1 274 292 116 145 147 149 153 165 167 170 173 166 175 177 182 183 185 189 190 191 194 197 199 203 210 216 221 227 219 226 229 229 230 232 230 226 220
249 255 267 280 298 312 340 331 332 311 289 266 275 350 71 136 149 152 156 164 170 177 181 180 178 181 190 191 180 191 195 197 200 203 204 209 219 216 209 224 217 226 235 237 236 236 235 233 226
232 256 270 307 308 309 318 319 321 298 279 281 1 93 124 148 159 164 169 173 177 181 184 187 190 183 195 198 184 201 204 197 211 214 205 211 221 230 233 200 215 233 239 242 241 241 240 235 231
234 260 282 285 288 300 301 306 313 301 308 342 330 145 157 167 173 178 179 180 179 180 183 186 194 191 200 201 202 205 213 208 215 222 219 225 229 224 230 226 210 223 231 237 230 229 235 234 234
246 256 268 277 290 289 294 301 306 333 344 340 330 296 174 182 185 186 183 182 176 181 185 190 190 193 205 212 212 214 219 217 221 215 221 221 226 236 236 239 245 234 230 236 245 241 240 242 242
241 259 269 275 277 279 282 284 306 1 355 359 12 76 176 186 184 179 178 178 178 182 187 192 192 196 202 215 232 226 228 232 227 230 222 226 227 231 235 235 241 248 246 240 243 248 252 249 244
268 273 272 276 278 269 265 297 14 9 3 27 45 55 67 92 130 146 156 169 178 184 188 190 195 195 202 211 229 239 236 232 240 229 230 228 231 234 240 240 240 245 247 251 252 253 254 250 246
268 266 256 251 268 234 218 133 34 11 28 53 58 61 61 58 58 66 94 139 157 167 175 182 194 198 207 216 224 234 238 237 237 235 235 233 234 233 240 250 248 247 245 244 249 257 252 244 239
242 245 237 107 346 196 246 112 43 27 52 61 61 63 65 61 56 50 55 71 84 122 160 187 208 207 217 229 230 240 244 246 248 247 244 241 240 237 236 244 249 256 254 248 246 249 247 245 245
219 236 246 122 57 344 307 64 48 37 58 64 62 64 65 63 56 52 51 57 58 58 66 101 253 252 245 247 245 245 245 247 253 258 254 247 245 242 237 241 245 248 251 251 254 242 247 246 247
305 286 257 34 66 78 85 85 68 53 60 64 64 64 63 61 54 51 50 51 54 55 58 59 59 25 329 284 263 252 248 242 244 246 249 257 251 244 239 241 240 240 242 242 245 248 241 254 252
295 286 285 64 97 82 91 90 77 66 66 67 67 65 64 62 59 55 53 53 57 60 63 53 47 47 14 324 283 263 258 260 255 250 258 258 249 238 232 236 233 239 237 237 235 236 229 234 234
255 258 251 136 138 180 124 106 93 73 66 62 62 62 63 64 61 54 51 51 55 58 58 56 48 52 40 11 307 300 300 283 279 267 253 261 249 241 234 234 236 231 229 226 231 231 247 233 215
249 272 303 296 170 190 181 149 117 98 87 78 70 65 63 60 56 52 49 44 42 42 35 30 27 33 39 18 282 269 261 266 275 286 272 262 262 252 251 245 242 240 236 223 223 223 231 237 220
280 331 294 267 250 238 239 253 115 109 90 75 69 66 62 58 53 46 41 35 30 25 22 15 4 2 3 303 299 299 291 300 304 292 293 276 263 263 255 244 237 238 238 233 229 220 229 238 235
338 333 281 268 266 266 235 275 110 107 76 67 67 62 55 48 44 37 30 19 11 2 351 349 344 331 321 305 293 288 294 298 296 279 246 259 255 256 260 251 244 239 241 239 245 237 234 234 243
308 263 246 244 252 251 12 296 90 58 38 49 57 56 46 34 27 21 10 358 347 340 333 329 325 319 313 305 302 295 297 294 289 276 262 248 234 237 250 259 254 248 250 244 244 244 236 243 248
288 291 272 253 249 20 78 6 71 53 42 33 31 30 22 10 1 358 352 348 340 331 327 317 310 304 302 296 293 293 291 285 277 278 269 263 255 233 212 235 240 248 247 248 248 242 250 244 242
332 314 319 312 315 338 126 81 85 66 64 50 40 20 6 359 354 347 345 341 337 333 328 319 313 306 301 295 293 292 286 280 280 277 282 273 269 266 236 229 228 232 236 242 241 248 242 242 243
331 350 338 291 292 291 97 115 123 96 72 50 27 4 355 348 342 338 335 334 332 329 327 325 320 312 305 299 294 286 282 281 283 282 268 267 261 257 237 234 235 235 235 239 239 248 249 243 241
20 348 304 316 325 313 328 116 85 46 23 13 360 351 343 336 334 334 331 330 327 323 322 321 317 314 308 301 293 288 286 281 278 276 276 273 269 262 250 241 238 238 238 236 238 245 239 240 242
24 22 348 332 343 323 325 55 63 34 6 347 343 342 338 335 333 332 331 332 327 323 322 320 317 313 308 303 299 294 287 283 277 270 267 265 262 258 250 245 243 239 238 238 238 248 248 244 246
45 25 6 353 358 330 312 62 85 31 348 336 332 334 335 332 330 331 331 329 326 325 323 320 318 313 309 305 300 294 289 284 277 271 268 264 261 258 252 248 247 243 240 237 239 244 247 246 247